Tracking 35334 objects as of 12-Sep-2026
HD Live streaming from Space Station
objects crossing your sky now

STARLINK-35736

Track STARLINK-35736 now!
10-day predictions
STARLINK-35736 is classified as:


NORAD ID: 66230
Int'l Code: 2025-244AA
Launch date: October 28, 2025
Source: United States (US)
Launch site: AIR FORCE WESTERN TEST RANGE (AFWTR)
Your satellite tracking list
Your tracking list is empty




NASA's NSSDC Master Catalog

Two Line Element Set (TLE):
1 66230U 25244AA  26254.82236196  .00004978  00000-0  15839-3 0  9997
2 66230  53.1582  84.1801 0001028  96.0340 264.0780 15.34394415 50177
Source of the keplerian elements: AFSPC